(124513) = 2001 RN68 = 2003 FD85

Discovered at Socorro on 2001-09-10 by LINEAR.

Orbit

Orbit type: Main Belt

Note: WebGL enabled browser required.

epoch2024-03-31.0
epoch JD2460400.5
perihelion date2022-08-12.93634
perihelion JD2459804.43634
argument of perihelion (°)118.79709
ascending node (°)313.90058
inclination (°)6.19186
eccentricity0.0610102
perihelion distance (AU)2.1210812
Tisserand w.r.t. Jupiter3.6
ΔV w.r.t. Earth (km/sec)9.2
semimajor axis (AU)2.2588968
mean anomaly (°)173.04215
mean daily motion (°/day)0.29030820
aphelion distance (AU)2.397
period (years)3.4
P-vector [x]0.29373017
P-vector [y]0.83511478
P-vector [z]0.46508698
Q-vector [x]-0.95272385
Q-vector [y]0.29532658
Q-vector [z]0.07141061
absolute magnitude16.59
phase slope0.15
uncertainty0
referenceMPEC 2024-E179
observations used774
oppositions15
arc length (days)7900
first opposition used2001
last opposition used2023
residual rms (arc-secs)0.75
perturbers coarse indicatorM-v
perturbers precise indicator003Ek
first observation date used2001-08-28.0
last observation date used2023-04-15.0
computer nameMPCLINUX
JD of orbit computation2456909.076827
perihelion JD uncertainty (days)1.9402E-04
argument of perihelion uncertainty (°)6.5422E-05
ascending node uncertainty (°)3.3640E-05
inclination uncertainty (°)5.8440E-06
eccentricity uncertainty 3.0151E-08
perihelion distance uncertainty (AU)6.8022E-08
Minimum Orbit Intersection Distances (in AU)
for orbit epoch: 2460400.5, reference: E2024-ED3
Mercury1.81373
Venus1.40533
Earth1.14455
Mars0.52693
Jupiter2.73663
Saturn6.92137
Uranus16.1776
Neptune27.6784

Observations

785 total observations over interval: 2001 08 28.33194 – 2023 04 15.159641
These data are available for download (format description).

Date (UT) J2000 RA J2000 Dec Magn Location Ref
2001 08 28.33194 01 16 45.42 +16 05 50.3 19.7 R 699 – Lowell Observatory-LONEOS MPS 38002
2001 08 28.35852 01 16 45.02 +16 05 57.1   699 – Lowell Observatory-LONEOS MPS 38002
2001 08 28.38517 01 16 44.78 +16 06 04.9   699 – Lowell Observatory-LONEOS MPS 38002
2001 08 28.41187 01 16 44.43 +16 06 12.4   699 – Lowell Observatory-LONEOS MPS 38002
2001 09 10.33045 01 12 04.34 +16 44 57.7 19.4   704 – Lincoln Laboratory ETS, New Mexico MPS 36304
2001 09 10.35777 01 12 03.42 +16 44 59.7 20.1   704 – Lincoln Laboratory ETS, New Mexico MPS 36304
2001 09 10.37142 01 12 02.91 +16 45 00.6 19.8   704 – Lincoln Laboratory ETS, New Mexico MPS 36304
2001 09 17.34828 01 07 24.42 +16 51 07.9 18.9   704 – Lincoln Laboratory ETS, New Mexico MPS 36304
2001 09 17.36274 01 07 23.70 +16 51 06.8 19.6   704 – Lincoln Laboratory ETS, New Mexico MPS 36304
2001 09 17.37673 01 07 22.96 +16 51 08.0 19.4   704 – Lincoln Laboratory ETS, New Mexico MPS 36304
2001 09 17.39231 01 07 22.23 +16 51 08.0 19.2   704 – Lincoln Laboratory ETS, New Mexico MPS 36304
2001 09 19.26020 01 05 54.37 +16 50 49.9 19.5 R 699 – Lowell Observatory-LONEOS MPS 36304
2001 09 19.28518 01 05 53.09 +16 50 48.6   699 – Lowell Observatory-LONEOS MPS 36304
2001 09 19.31014 01 05 51.87 +16 50 49.5   699 – Lowell Observatory-LONEOS MPS 36304
2001 09 19.33514 01 05 50.53 +16 50 49.2   699 – Lowell Observatory-LONEOS MPS 36304
2001 09 23.26034 01 02 29.33 +16 47 27.4 18.9   704 – Lincoln Laboratory ETS, New Mexico MPS 43778
2001 09 23.27460 01 02 28.55 +16 47 27.4 19.2   704 – Lincoln Laboratory ETS, New Mexico MPS 43778
2001 09 23.28951 01 02 27.68 +16 47 26.8 19.5   704 – Lincoln Laboratory ETS, New Mexico MPS 43778
2001 09 23.31965 01 02 26.01 +16 47 23.4 19.0   704 – Lincoln Laboratory ETS, New Mexico MPS 43778
2001 09 29.43354 00 56 36.96 +16 35 08.4 19.7   644 – Palomar Mountain/NEAT MPS 36304
2001 09 29.45481 00 56 35.64 +16 35 05.2 19.4   644 – Palomar Mountain/NEAT MPS 36304
2001 09 29.47612 00 56 34.33 +16 35 01.2 19.4   644 – Palomar Mountain/NEAT MPS 36304
2001 10 15.44158 00 40 09.75 +15 29 03.3 19.9   608 – Haleakala-AMOS MPS 39319
2001 10 15.45205 00 40 09.10 +15 28 59.7 20.2   608 – Haleakala-AMOS MPS 39319
2001 10 15.46253 00 40 08.41 +15 28 56.4 20.3   608 – Haleakala-AMOS MPS 39319
2001 10 17.24420 00 38 23.54 +15 19 18.6 19.3   704 – Lincoln Laboratory ETS, New Mexico MPS 39319
2001 10 17.25974 00 38 22.61 +15 19 13.8 19.1   704 – Lincoln Laboratory ETS, New Mexico MPS 39319
2001 10 17.27533 00 38 21.66 +15 19 07.6 19.7   704 – Lincoln Laboratory ETS, New Mexico MPS 39319
2001 10 17.29097 00 38 20.72 +15 19 02.9 19.8   704 – Lincoln Laboratory ETS, New Mexico MPS 39319
2001 10 17.30692 00 38 19.73 +15 18 58.1 19.6   704 – Lincoln Laboratory ETS, New Mexico MPS 39319
2001 10 20.37746 00 35 25.59 +15 01 55.4 19.4   644 – Palomar Mountain/NEAT MPS 40390
2001 10 20.39893 00 35 24.39 +15 01 48.0 19.1   644 – Palomar Mountain/NEAT MPS 40390
2001 10 20.42016 00 35 23.17 +15 01 40.7 19.3   644 – Palomar Mountain/NEAT MPS 40390
2001 10 26.16027 00 30 29.64 +14 28 51.4 19.6   644 – Palomar Mountain/NEAT MPS 40390
2001 10 26.18118 00 30 28.58 +14 28 44.3 19.9   644 – Palomar Mountain/NEAT MPS 40390
2001 10 26.20220 00 30 27.57 +14 28 37.2 19.8   644 – Palomar Mountain/NEAT MPS 40390
2001 11 10.23517 00 21 58.93 +13 09 13.4 19.2   704 – Lincoln Laboratory ETS, New Mexico MPS 40390
2001 11 10.25023 00 21 58.60 +13 09 08.8 19.6   704 – Lincoln Laboratory ETS, New Mexico MPS 40390
2001 11 10.29378 00 21 57.76 +13 08 56.8 19.6   704 – Lincoln Laboratory ETS, New Mexico MPS 40390
2003 03 10.28506 12 11 57.07 -09 33 37.6 19.4 R 699 – Lowell Observatory-LONEOS MPS 76403
2003 03 10.30333 12 11 56.03 -09 33 35.0   699 – Lowell Observatory-LONEOS MPS 76403
2003 03 10.32159 12 11 54.83 -09 33 31.0   699 – Lowell Observatory-LONEOS MPS 76403
2003 03 10.33977 12 11 53.72 -09 33 28.8   699 – Lowell Observatory-LONEOS MPS 76403
2003 03 28.24691 11 53 34.55 -08 25 10.2 19.2 V 691 – Steward Observatory, Kitt Peak-Spacewatch MPS 76403
2003 03 28.27431 11 53 32.80 -08 25 02.2 19.1 V 691 – Steward Observatory, Kitt Peak-Spacewatch MPS 76403
2003 03 28.30099 11 53 31.13 -08 24 54.5 19.4 V 691 – Steward Observatory, Kitt Peak-Spacewatch MPS 76403
2003 03 30.19427 11 51 37.39 -08 15 36.6 19.4 R 699 – Lowell Observatory-LONEOS MPS 76403
2003 03 30.21210 11 51 36.33 -08 15 33.2   699 – Lowell Observatory-LONEOS MPS 76403
2003 03 30.22990 11 51 35.18 -08 15 27.7   699 – Lowell Observatory-LONEOS MPS 76403
2003 03 30.24770 11 51 34.09 -08 15 21.7   699 – Lowell Observatory-LONEOS MPS 76403
2003 03 31.28790 11 50 32.54 -08 10 08.9 19.0   704 – Lincoln Laboratory ETS, New Mexico MPS 76403
2003 03 31.29957 11 50 31.81 -08 10 06.9 19.4   704 – Lincoln Laboratory ETS, New Mexico MPS 76403
2003 03 31.31112 11 50 31.13 -08 10 02.8 19.1   704 – Lincoln Laboratory ETS, New Mexico MPS 76403
2003 03 31.32284 11 50 30.37 -08 09 59.9 19.4   704 – Lincoln Laboratory ETS, New Mexico MPS 76403
2003 03 31.33440 11 50 29.67 -08 09 56.0 19.3   704 – Lincoln Laboratory ETS, New Mexico MPS 76403
2004 08 08.24848 21 14 02.88 -15 38 10.9 19.4   704 – Lincoln Laboratory ETS, New Mexico MPS 111030
2004 08 08.25786 21 14 02.19 -15 38 13.2 19.3   704 – Lincoln Laboratory ETS, New Mexico MPS 111030
2004 08 08.26724 21 14 01.60 -15 38 13.2 19.6   704 – Lincoln Laboratory ETS, New Mexico MPS 111030
2004 08 08.28617 21 14 00.19 -15 38 15.0 19.7   704 – Lincoln Laboratory ETS, New Mexico MPS 111030
2004 08 09.21872 21 12 59.24 -15 39 43.8 18.6 R 699 – Lowell Observatory-LONEOS MPS 111030
2004 08 09.23497 21 12 58.19 -15 39 47.0   699 – Lowell Observatory-LONEOS MPS 111030
2004 08 09.25123 21 12 57.09 -15 39 47.7   699 – Lowell Observatory-LONEOS MPS 111030
2004 08 09.26747 21 12 55.94 -15 39 51.5   699 – Lowell Observatory-LONEOS MPS 111030
2004 09 07.17681 20 46 44.07 -16 03 37.9 18.9   704 – Lincoln Laboratory ETS, New Mexico MPS 112616
2004 09 07.18783 20 46 43.65 -16 03 37.3 19.8   704 – Lincoln Laboratory ETS, New Mexico MPS 112616
2004 09 07.20993 20 46 42.91 -16 03 37.3 19.8   704 – Lincoln Laboratory ETS, New Mexico MPS 112616
2004 09 07.22095 20 46 42.46 -16 03 37.9 20.1   704 – Lincoln Laboratory ETS, New Mexico MPS 112616
2004 09 12.211707 20 44 16.292 -16 01 18.04 19.93 V 645 – Apache Point-Sloan Digital Sky Survey MPS 389921
2004 09 12.215179 20 44 16.205 -16 01 17.88 20.82   645 – Apache Point-Sloan Digital Sky Survey MPS 389921
2005 12 22.34968 08 50 59.74 +21 36 25.9 19.8 V 703 – Catalina Sky Survey MPS 157602
2005 12 22.35659 08 50 59.60 +21 36 26.4 19.7 V 703 – Catalina Sky Survey MPS 157602
2005 12 22.36350 08 50 59.31 +21 36 27.4 19.0 V 703 – Catalina Sky Survey MPS 157602
2005 12 22.37043 08 50 59.02 +21 36 26.7 20.4 V 703 – Catalina Sky Survey MPS 157602
2005 12 27.41593 08 48 06.98 +21 36 43.6 19.4 V G96 – Mt. Lemmon Survey MPS 156419
2005 12 27.42400 08 48 06.66 +21 36 43.9 19.5 V G96 – Mt. Lemmon Survey MPS 156419
2005 12 27.43206 08 48 06.33 +21 36 44.3 19.6 V G96 – Mt. Lemmon Survey MPS 156419
2005 12 27.44015 08 48 05.97 +21 36 44.1 19.4 V G96 – Mt. Lemmon Survey MPS 156419
2005 12 29.33124 08 46 47.39 +21 37 18.6 19.4   704 – Lincoln Laboratory ETS, New Mexico MPS 156419
2005 12 29.34439 08 46 46.75 +21 37 18.7 19.5   704 – Lincoln Laboratory ETS, New Mexico MPS 156419
2005 12 29.35722 08 46 46.19 +21 37 20.3 19.5   704 – Lincoln Laboratory ETS, New Mexico MPS 156419
2005 12 29.38254 08 46 45.03 +21 37 20.0 19.6   704 – Lincoln Laboratory ETS, New Mexico MPS 156419
2005 12 29.39476 08 46 44.45 +21 37 19.7   691 – Steward Observatory, Kitt Peak-Spacewatch MPS 156419
2005 12 29.41205 08 46 43.66 +21 37 20.5   691 – Steward Observatory, Kitt Peak-Spacewatch MPS 156419
2005 12 29.42943 08 46 42.85 +21 37 20.7   691 – Steward Observatory, Kitt Peak-Spacewatch MPS 156419
2005 12 30.45303 08 45 56.80 +21 37 44.3 19.5 V G96 – Mt. Lemmon Survey MPS 157602
2005 12 30.46316 08 45 56.26 +21 37 44.4 19.3 V G96 – Mt. Lemmon Survey MPS 157602
2005 12 30.47197 08 45 55.87 +21 37 44.5 19.3 V G96 – Mt. Lemmon Survey MPS 157602
2005 12 30.48252 08 45 55.36 +21 37 44.9 19.4 V G96 – Mt. Lemmon Survey MPS 157602
